Weather History for New River MCAS, NC

Change the Weather History Date:

Tuesday, February 26, 2013

  Actual Average Record
Temperature  
Mean Temperature 54 °F -  
Max Temperature 66 °F 59 °F 75 °F (2001)
Min Temperature 41 °F 38 °F 28 °F (2005)
Degree Days  
Heating Degree Days 12    
Growing Degree Days 4 (Base 50)    
Moisture  
Dew Point 54 °F    
Average Humidity 87    
Maximum Humidity 94    
Minimum Humidity 67    
Precipitation  
Precipitation 1.20 in - - ()
Sea Level Pressure  
Sea Level Pressure 29.80 in    
Wind  
Wind Speed 14 mph (SE)    
Max Wind Speed 30 mph    
Max Gust Speed 44 mph    
Visibility 5 miles    
Events Rain    
Averages and records for this station are not official NWS values.
T = Trace of Precipitation, MM = Missing Value Source: NWS Daily Summary

Daily Weather History Graph

Daily Weather History Graph

Search for Another Location

Airport:

Trip Planner

Search our weather history database for the weather conditions in past years. The results will help you decide how hot, cold, wet, or windy it might be!

Date:

Astronomy

Feb. 26, 2013 Rise Set
Actual Time 6:42 AM EST 6:03 PM EST
Civil Twilight 6:17 AM EST 6:28 PM EST
Nautical Twilight 5:47 AM EST 6:57 PM EST
Astronomical Twilight 5:18 AM EST 7:27 PM EST
Moon 7:12 PM EST (2/26) 6:48 AM EST (2/26)
Length of Visible Light 12h 11m
Length of Day
11h 20m
Full, 99% of the Moon is Illuminated
Feb 26
Full
Mar 4
Last Quarter
Mar 11
New
Mar 19
First Quarter
Mar 27
Full

Hourly Weather History & Observations

Time (EST) Temp. Windchill Dew Point Humidity Pressure Visibility Wind Dir Wind Speed Gust Speed Precip Events Conditions
12:56 AM 41.0 °F 35.8 °F 30.9 °F 67% 30.11 in 10.0 mi NE 8.1 mph - N/A   Overcast
1:56 AM 41.0 °F 35.8 °F 32.0 °F 70% 30.10 in 10.0 mi NE 8.1 mph - N/A   Overcast
2:56 AM 41.0 °F 35.8 °F 34.0 °F 76% 30.08 in 10.0 mi NE 8.1 mph - N/A   Overcast
4:56 AM 44.1 °F 39.0 °F 37.0 °F 76% 30.05 in 10.0 mi ENE 9.2 mph - N/A   Overcast
5:56 AM 46.0 °F 41.0 °F 39.0 °F 76% 30.01 in 10.0 mi ENE 10.4 mph - N/A   Overcast
6:56 AM 46.9 °F - 41.0 °F 80% 30.01 in 10.0 mi ENE 8.1 mph - 0.00 in   Overcast
7:56 AM 46.9 °F - 43.0 °F 86% 30.02 in 4.0 mi ENE 8.1 mph - 0.04 in Rain Light Rain
8:36 AM 48.2 °F - 44.6 °F 87% 29.99 in 3.0 mi ENE 10.4 mph - 0.08 in Rain Light Rain
8:53 AM 48.2 °F - 46.4 °F 93% 29.99 in 2.5 mi East 11.5 mph - 0.10 in Rain Light Rain
8:56 AM 48.9 °F - 46.0 °F 90% 30.00 in 2.5 mi East 11.5 mph - 0.11 in Rain Light Rain
9:01 AM 50.0 °F - 46.4 °F 87% 29.98 in 3.0 mi East 13.8 mph - 0.01 in Rain Rain
9:42 AM 51.8 °F - 48.2 °F 88% 29.95 in 4.0 mi East 11.5 mph - 0.06 in Rain Light Rain
9:56 AM 52.0 °F - 48.9 °F 89% 29.92 in 4.0 mi East 17.3 mph - 0.07 in Rain Light Rain
10:56 AM 55.9 °F - 53.1 °F 90% 29.91 in 4.0 mi East 17.3 mph 28.8 mph 0.04 in Rain Light Rain
11:13 AM 57.2 °F - 53.6 °F 88% 29.89 in 2.5 mi East 18.4 mph - 0.04 in Rain Rain
11:29 AM 57.2 °F - 53.6 °F 88% 29.87 in 4.0 mi East 21.9 mph 31.1 mph 0.06 in Rain Light Rain
11:44 AM 57.2 °F - 53.6 °F 88% 29.87 in 1.8 mi ESE 18.4 mph 29.9 mph 0.11 in Rain Heavy Rain
11:56 AM 57.9 °F - 54.0 °F 87% 29.87 in 1.8 mi East 23.0 mph 27.6 mph 0.16 in Rain Heavy Rain
12:08 PM 57.2 °F - 55.4 °F 94% 29.84 in 1.0 mi ESE 19.6 mph 27.6 mph 0.12 in Rain Heavy Rain
12:15 PM 57.2 °F - 55.4 °F 94% 29.84 in 1.5 mi East 19.6 mph 27.6 mph 0.16 in Rain Rain
12:32 PM 59.0 °F - 55.4 °F 88% 29.81 in 2.5 mi ESE 19.6 mph 29.9 mph 0.22 in Rain Rain
12:56 PM 59.0 °F - 55.9 °F 90% 29.79 in 1.8 mi ESE 13.8 mph 25.3 mph 0.30 in Rain Rain
1:07 PM 60.8 °F - 57.2 °F 88% 29.76 in 1.5 mi ESE 16.1 mph 23.0 mph 0.06 in Rain Heavy Rain
1:19 PM 60.8 °F - 57.2 °F 88% 29.76 in 2.5 mi SE 19.6 mph 26.5 mph 0.09 in Rain Light Rain
1:35 PM 60.8 °F - 57.2 °F 88% 29.75 in 1.2 mi SE 23.0 mph 31.1 mph 0.17 in Rain Heavy Rain
1:43 PM 62.6 °F - 59.0 °F 88% 29.74 in 1.0 mi SE 19.6 mph 31.1 mph 0.22 in Rain Rain
1:46 PM 62.6 °F - 59.0 °F 88% 29.74 in 1.2 mi SE 23.0 mph 31.1 mph 0.24 in Rain Rain
1:56 PM 62.1 °F - 59.0 °F 90% 29.74 in 2.0 mi SE 17.3 mph 33.4 mph 0.28 in Rain Rain
2:10 PM 62.6 °F - 60.8 °F 94% 29.72 in 4.0 mi SE 27.6 mph 39.1 mph 0.02 in Rain Light Rain
2:33 PM 64.4 °F - 60.8 °F 88% 29.70 in 1.8 mi SE 29.9 mph 43.7 mph 0.07 in Rain Rain
2:45 PM 64.4 °F - 60.8 °F 88% 29.70 in 3.0 mi SE 27.6 mph 35.7 mph 0.09 in Rain Light Rain
2:56 PM 64.0 °F - 61.0 °F 90% 29.71 in 2.0 mi SE 24.2 mph 36.8 mph 0.12 in Rain Rain
3:04 PM 64.4 °F - 60.8 °F 88% 29.70 in 1.8 mi SSE 20.7 mph 35.7 mph 0.02 in Rain Rain
3:24 PM 64.4 °F - 60.8 °F 88% 29.69 in 3.0 mi South 20.7 mph 41.4 mph 0.07 in Rain Light Rain
3:48 PM 64.4 °F - 60.8 °F 88% 29.68 in 5.0 mi SSE 19.6 mph 29.9 mph 0.07 in   Overcast
3:56 PM 64.0 °F - 61.0 °F 90% 29.68 in 5.0 mi SSE 19.6 mph 32.2 mph 0.07 in   Overcast
4:56 PM 64.9 °F - 62.1 °F 90% 29.64 in 5.0 mi SSE 16.1 mph 26.5 mph N/A   Overcast
5:13 PM 64.4 °F - 62.6 °F 94% 29.63 in 5.0 mi South 15.0 mph 24.2 mph 0.00 in Rain Rain
5:25 PM 66.2 °F - 62.6 °F 88% 29.62 in 5.0 mi South 17.3 mph 28.8 mph 0.00 in Rain Rain
5:56 PM 66.9 °F - 62.1 °F 84% 29.64 in 5.0 mi South 17.3 mph 24.2 mph 0.00 in   Overcast
6:56 PM 66.9 °F - 63.0 °F 87% 29.64 in 7.0 mi South 12.7 mph - 0.01 in   Overcast
7:56 PM 66.9 °F - 63.0 °F 87% 29.63 in 7.0 mi South 15.0 mph 21.9 mph 0.00 in Rain Light Rain
8:34 PM 66.2 °F - 62.6 °F 88% 29.62 in 7.0 mi SSW 9.2 mph 19.6 mph 0.00 in   Mostly Cloudy
8:44 PM 64.4 °F - 60.8 °F 88% 29.62 in 6.0 mi SSW 9.2 mph - 0.00 in   Scattered Clouds
8:56 PM 64.9 °F - 61.0 °F 87% 29.63 in 7.0 mi SSW 8.1 mph - 0.00 in   Scattered Clouds
9:56 PM 64.9 °F - 59.0 °F 81% 29.63 in 9.0 mi SW 10.4 mph - N/A   Scattered Clouds
10:56 PM 62.1 °F - 57.0 °F 84% 29.65 in 9.0 mi West 8.1 mph - N/A   Clear
11:56 PM 61.0 °F - 55.9 °F 83% 29.64 in 9.0 mi West 8.1 mph - N/A   Partly Cloudy